FW8688 Weather Reports


Display with metric or nautical units.
time (UTC)temp
F
wind
direction
speed
MPH
gust
MPH
rain 1hr
in
rain 24hr
in
rain mn
in
humidity
%
barometer
mb
20260903123304 57 286 1.0 3.0 0.00 0.00 0.00 46 1011.3
20260903122804 57 67 3.0 6.0 0.00 0.00 0.00 46 1011.2
20260903122305 57 247 1.0 3.0 0.00 0.00 0.00 46 1011.2
20260903121803 57 96 0.0 0.0 0.00 0.00 0.00 45 1011.2
20260903121303 58 119 0.0 0.0 0.00 0.00 0.00 44 1011.3
20260903120804 58 119 0.0 0.0 0.00 0.00 0.00 46 1011.1
20260903115305 59 119 0.0 0.0 0.00 0.00 0.00 40 1011.1
20260903114805 59 119 0.0 0.0 0.00 0.00 0.00 40 1011.1
20260903114304 59 119 0.0 0.0 0.00 0.00 0.00 41 1011.0
20260903113803 59 71 0.0 0.0 0.00 0.00 0.00 40 1011.0
20260903113304 59 78 0.0 0.0 0.00 0.00 0.00 41 1010.8
20260903112305 59 78 1.0 3.0 0.00 0.00 0.00 43 1010.8
20260903111804 60 68 1.0 2.0 0.00 0.00 0.00 41 1010.8
20260903111304 60 46 0.0 0.0 0.00 0.00 0.00 39 1010.8
20260903110804 60 355 0.0 0.0 0.00 0.00 0.00 37 1011.1
20260903110304 61 355 0.0 0.0 0.00 0.00 0.00 38 1011.1
20260903105804 61 355 0.0 0.0 0.00 0.00 0.00 37 1011.1
20260903104806 61 355 0.0 0.0 0.00 0.00 0.00 36 1011.1
20260903104304 62 355 0.0 0.0 0.00 0.00 0.00 34 1010.9
20260903103803 62 351 0.0 1.0 0.00 0.00 0.00 34 1010.9
20260903103304 62 256 0.0 0.0 0.00 0.00 0.00 32 1010.9
20260903102804 62 256 0.0 0.0 0.00 0.00 0.00 35 1010.9
20260903102306 63 256 0.0 0.0 0.00 0.00 0.00 32 1010.9
20260903101804 63 256 0.0 0.0 0.00 0.00 0.00 37 1010.8
20260903101304 63 256 0.0 0.0 0.00 0.00 0.00 32 1010.8
20260903100804 63 256 2.0 6.0 0.00 0.00 0.00 36 1010.8
20260903100303 64 217 2.0 6.0 0.00 0.00 0.00 35 1010.8
20260903095804 64 321 0.0 2.0 0.00 0.00 0.00 36 1010.8
20260903095306 64 292 1.0 2.0 0.00 0.00 0.00 37 1010.8
20260903094304 64 297 1.0 2.0 0.00 0.00 0.00 38 1010.6
20260903093805 65 278 0.0 0.0 0.00 0.00 0.00 37 1010.6
20260903093303 65 271 0.0 2.0 0.00 0.00 0.00 38 1010.6
20260903092804 66 88 0.0 0.0 0.00 0.00 0.00 36 1010.6
20260903091304 67 54 3.0 3.0 0.00 0.00 0.00 34 1010.6
20260903090804 67 72 1.0 3.0 0.00 0.00 0.00 31 1010.6
20260903090304 67 229 0.0 0.0 0.00 0.00 0.00 30 1010.5
20260903085804 67 229 0.0 1.0 0.00 0.00 0.00 30 1010.5
20260903085306 68 161 2.0 3.0 0.00 0.00 0.00 29 1010.5
20260903084804 68 138 2.0 6.0 0.00 0.00 0.00 29 1010.5
20260903084304 68 152 2.0 6.0 0.00 0.00 0.00 30 1010.5
20260903083804 68 225 2.0 6.0 0.00 0.00 0.00 31 1010.5
20260903083304 69 147 3.0 6.0 0.00 0.00 0.00 31 1010.5
20260903082804 69 170 2.0 7.0 0.00 0.00 0.00 33 1010.5
20260903082306 69 172 2.0 6.0 0.00 0.00 0.00 34 1010.6
20260903081304 69 147 3.0 6.0 0.00 0.00 0.00 36 1010.6
20260903080804 70 145 4.0 9.0 0.00 0.00 0.00 37 1010.5
20260903080303 70 162 4.0 7.0 0.00 0.00 0.00 37 1010.5
20260903075804 70 162 2.0 6.0 0.00 0.00 0.00 38 1010.5
20260903075306 70 152 2.0 6.0 0.00 0.00 0.00 37 1010.5
20260903074803 70 177 3.0 5.0 0.00 0.00 0.00 36 1010.5
20260903073804 71 165 2.0 6.0 0.00 0.00 0.00 34 1010.2
20260903073304 71 158 4.0 8.0 0.00 0.00 0.00 33 1010.2
20260903072804 71 167 3.0 8.0 0.00 0.00 0.00 31 1010.2
20260903072306 71 167 3.0 7.0 0.00 0.00 0.00 31 1010.2
20260903071804 71 154 2.0 8.0 0.00 0.00 0.00 31 1010.2
20260903071304 71 174 5.0 8.0 0.00 0.00 0.00 33 1010.2
20260903070804 71 160 7.0 12.0 0.00 0.00 0.00 32 1009.9
20260903070304 72 164 3.0 6.0 0.00 0.00 0.00 32 1009.9
20260903065803 72 161 5.0 9.0 0.00 0.00 0.00 31 1009.9
20260903065306 72 168 3.0 7.0 0.00 0.00 0.00 31 1009.9
20260903064804 72 147 5.0 10.0 0.00 0.00 0.00 30 1009.9
20260903064304 72 150 6.0 10.0 0.00 0.00 0.00 32 1009.9
20260903063804 72 148 1.0 7.0 0.00 0.00 0.00 32 1009.7
20260903063304 72 147 2.0 5.0 0.00 0.00 0.00 31 1009.7
20260903062804 72 155 1.0 6.0 0.00 0.00 0.00 29 1009.7
20260903062306 72 155 2.0 6.0 0.00 0.00 0.00 28 1009.5
20260903061803 72 146 3.0 7.0 0.00 0.00 0.00 28 1009.5
20260903061303 73 158 2.0 6.0 0.00 0.00 0.00 26 1009.5
20260903060804 73 149 3.0 3.0 0.00 0.00 0.00 24 1009.3
20260903060304 73 143 5.0 7.0 0.00 0.00 0.00 25 1009.3
20260903055804 73 158 3.0 8.0 0.00 0.00 0.00 23 1009.3
20260903055306 73 146 3.0 7.0 0.00 0.00 0.00 25 1009.2
20260903054804 73 154 3.0 8.0 0.00 0.00 0.00 26 1009.3
20260903054303 73 164 1.0 5.0 0.00 0.00 0.00 27 1009.3
20260903053804 74 172 1.0 3.0 0.00 0.00 0.00 28 1009.2
20260903053303 74 173 2.0 3.0 0.00 0.00 0.00 26 1009.2
20260903052306 74 151 6.0 10.0 0.00 0.00 0.00 25 1009.2
20260903051803 74 131 5.0 10.0 0.00 0.00 0.00 26 1009.2
20260903051304 74 131 4.0 8.0 0.00 0.00 0.00 26 1009.3
20260903050804 74 121 2.0 6.0 0.00 0.00 0.00 30 1009.4
20260903050305 74 220 3.0 6.0 0.00 0.00 0.00 30 1009.4
20260903045806 74 185 1.0 6.0 0.00 0.00 0.00 31 1009.4
20260903044805 74 164 5.0 10.0 0.00 0.00 0.00 27 1009.3
20260903043805 75 154 6.0 10.0 0.00 0.00 0.00 28 1009.3
20260903043305 75 152 5.0 8.0 0.00 0.00 0.00 28 1009.0
20260903042805 76 163 5.0 9.0 0.00 0.00 0.00 28 1009.0
20260903042306 77 166 4.0 10.0 0.00 0.00 0.00 23 1009.0
20260903041805 78 151 3.0 14.0 0.00 0.00 0.00 20 1009.0
20260903041306 77 189 9.0 16.0 0.00 0.00 0.00 14 1008.9
20260903040806 76 165 5.0 12.0 0.00 0.00 0.00 22 1009.1
20260903040305 76 175 5.0 8.0 0.00 0.00 0.00 23 1009.1
20260903035805 77 155 5.0 9.0 0.00 0.00 0.00 24 1009.1
20260903034805 79 172 5.0 9.0 0.00 0.00 0.00 15 1008.8
20260903033805 79 170 5.0 10.0 0.00 0.00 0.00 18 1008.8
20260903033305 80 184 9.0 14.0 0.00 0.00 0.00 12 1008.8
20260903032805 80 167 7.0 12.0 0.00 0.00 0.00 12 1008.8
20260903032306 80 168 9.0 14.0 0.00 0.00 0.00 13 1008.8
20260903031805 80 178 6.0 12.0 0.00 0.00 0.00 13 1008.7
20260903031305 80 195 7.0 13.0 0.00 0.00 0.00 13 1008.6
20260903030805 80 185 7.0 13.0 0.00 0.00 0.00 14 1008.6
20260903030306 80 179 8.0 10.0 0.00 0.00 0.00 13 1008.6
20260903025806 80 183 6.0 10.0 0.00 0.00 0.00 14 1008.4
20260903024805 80 178 7.0 13.0 0.00 0.00 0.00 15 1008.4
20260903024305 80 185 9.0 13.0 0.00 0.00 0.00 14 1008.3
20260903023805 80 174 7.0 10.0 0.00 0.00 0.00 15 1008.3
20260903023305 80 176 7.0 16.0 0.00 0.00 0.00 15 1008.2
20260903022306 80 176 10.0 15.0 0.00 0.00 0.00 15 1008.3
20260903021305 80 183 7.0 10.0 0.00 0.00 0.00 16 1008.3
20260903020805 80 170 6.0 9.0 0.00 0.00 0.00 15 1008.3
20260903020305 80 171 6.0 12.0 0.00 0.00 0.00 14 1008.3
20260903015306 80 187 5.0 9.0 0.00 0.00 0.00 15 1008.4
20260903014805 81 176 5.0 8.0 0.00 0.00 0.00 15 1008.4
20260903014305 81 178 6.0 8.0 0.00 0.00 0.00 14 1008.4
20260903013305 81 171 6.0 10.0 0.00 0.00 0.00 14 1008.4
20260903012306 82 200 4.0 7.0 0.00 0.00 0.00 14 1008.5
20260903011805 81 181 4.0 7.0 0.00 0.00 0.00 13 1008.5
20260903011305 82 214 5.0 7.0 0.00 0.00 0.00 14 1008.5
20260903005805 82 193 5.0 10.0 0.00 0.00 0.00 15 1008.7
20260903004805 82 182 6.0 12.0 0.00 0.00 0.00 15 1008.8
20260903004305 82 199 6.0 12.0 0.00 0.00 0.00 14 1008.8
20260903003805 82 186 5.0 10.0 0.00 0.00 0.00 15 1008.8
20260903003305 82 217 8.0 12.0 0.00 0.00 0.00 15 1008.9
20260903002805 82 187 8.0 12.0 0.00 0.00 0.00 15 1008.9
20260903002306 83 205 9.0 14.0 0.00 0.00 0.00 15 1008.8
20260903001805 83 189 6.0 9.0 0.00 0.00 0.00 14 1008.8
20260903001305 83 199 5.0 9.0 0.00 0.00 0.00 15 1008.8
20260903000805 83 215 8.0 15.0 0.00 0.00 0.00 15 1008.8
20260903000305 83 175 6.0 9.0 0.00 0.00 0.00 15 1008.8
20260902235805 83 189 6.0 12.0 0.00 0.00 0.00 15 1009.0
20260902235306 83 194 7.0 12.0 0.00 0.00 0.00 16 1009.0
20260902234805 83 213 7.0 12.0 0.00 0.00 0.00 15 1009.1
20260902234305 83 238 6.0 14.0 0.00 0.00 0.00 15 1009.1
20260902233805 83 244 8.0 14.0 0.00 0.00 0.00 16 1009.2
20260902233305 83 197 6.0 10.0 0.00 0.00 0.00 16 1009.2
20260902232805 83 228 7.0 13.0 0.00 0.00 0.00 16 1009.2
20260902232306 83 222 12.0 16.0 0.00 0.00 0.00 16 1009.2
20260902231805 83 221 8.0 12.0 0.00 0.00 0.00 17 1009.2
20260902230805 83 208 9.0 14.0 0.00 0.00 0.00 17 1009.3
20260902230305 83 233 6.0 10.0 0.00 0.00 0.00 17 1009.5
20260902225306 83 215 11.0 16.0 0.00 0.00 0.00 16 1009.4
20260902224805 83 218 12.0 18.0 0.00 0.00 0.00 17 1009.6
20260902224305 83 168 12.0 20.0 0.00 0.00 0.00 17 1009.6
20260902223804 83 217 9.0 13.0 0.00 0.00 0.00 17 1009.6
20260902223305 83 221 7.0 16.0 0.00 0.00 0.00 16 1009.6
20260902222805 84 189 9.0 16.0 0.00 0.00 0.00 17 1009.6
20260902222306 84 180 7.0 16.0 0.00 0.00 0.00 17 1009.6
20260902221805 84 205 11.0 18.0 0.00 0.00 0.00 17 1009.6
20260902221305 84 182 9.0 18.0 0.00 0.00 0.00 17 1009.6
20260902215805 83 188 10.0 20.0 0.00 0.00 0.00 18 1009.6
20260902215306 83 174 12.0 16.0 0.00 0.00 0.00 18 1009.6
20260902214305 83 182 7.0 12.0 0.00 0.00 0.00 20 1009.8
20260902213805 83 177 6.0 20.0 0.00 0.00 0.00 22 1010.1
20260902213305 83 205 10.0 17.0 0.00 0.00 0.00 21 1010.1
20260902212805 83 188 12.0 16.0 0.00 0.00 0.00 20 1010.0
20260902212306 83 185 7.0 15.0 0.00 0.00 0.00 20 1010.0
20260902211805 83 218 13.0 20.0 0.00 0.00 0.00 20 1010.0
20260902211305 83 181 13.0 20.0 0.00 0.00 0.00 19 1009.9
20260902210805 83 182 10.0 20.0 0.00 0.00 0.00 19 1010.1
20260902210305 84 198 14.0 22.0 0.00 0.00 0.00 18 1010.1
20260902205805 84 170 11.0 20.0 0.00 0.00 0.00 20 1010.1
20260902205306 83 198 13.0 18.0 0.00 0.00 0.00 20 1010.2
20260902204805 83 193 12.0 20.0 0.00 0.00 0.00 20 1010.2
20260902204305 83 188 13.0 18.0 0.00 0.00 0.00 19 1010.2
20260902203805 83 240 13.0 20.0 0.00 0.00 0.00 20 1010.3
20260902202805 83 193 7.0 12.0 0.00 0.00 0.00 22 1010.3
20260902202306 83 230 14.0 26.0 0.00 0.00 0.00 22 1010.7
20260902201805 83 243 9.0 14.0 0.00 0.00 0.00 22 1010.7
20260902201305 82 221 13.0 18.0 0.00 0.00 0.00 23 1010.7
20260902200805 82 180 11.0 20.0 0.00 0.00 0.00 21 1010.7
20260902200305 82 204 11.0 17.0 0.00 0.00 0.00 23 1010.8
20260902195805 82 193 10.0 17.0 0.00 0.00 0.00 24 1010.8
20260902195306 82 208 12.0 24.0 0.00 0.00 0.00 23 1010.8
20260902194805 82 220 14.0 22.0 0.00 0.00 0.00 22 1010.9
20260902194305 82 174 10.0 22.0 0.00 0.00 0.00 22 1010.9
20260902193805 82 178 11.0 23.0 0.00 0.00 0.00 22 1011.3
20260902193304 81 240 14.0 23.0 0.00 0.00 0.00 20 1011.3
20260902192805 81 212 9.0 20.0 0.00 0.00 0.00 22 1011.3
20260902191305 81 207 16.0 21.0 0.00 0.00 0.00 22 1011.5
20260902190305 81 198 14.0 21.0 0.00 0.00 0.00 22 1011.5
20260902185805 81 193 10.0 16.0 0.00 0.00 0.00 22 1011.8
20260902185307 81 194 10.0 18.0 0.00 0.00 0.00 26 1011.8
20260902184804 81 177 14.0 20.0 0.00 0.00 0.00 26 1011.7
20260902184305 80 198 12.0 20.0 0.00 0.00 0.00 27 1012.3
20260902183805 80 194 11.0 18.0 0.00 0.00 0.00 30 1012.3
20260902182805 79 207 10.0 21.0 0.00 0.00 0.00 29 1012.3
20260902182306 79 192 12.0 21.0 0.00 0.00 0.00 29 1012.3
20260902181805 80 184 12.0 20.0 0.00 0.00 0.00 30 1012.3
20260902181305 80 174 12.0 17.0 0.00 0.00 0.00 30 1012.3
20260902180806 80 188 13.0 20.0 0.00 0.00 0.00 31 1012.3
20260902180305 79 178 12.0 18.0 0.00 0.00 0.00 30 1012.3
20260902175805 79 209 13.0 23.0 0.00 0.00 0.00 32 1012.2
20260902175307 78 175 9.0 18.0 0.00 0.00 0.00 33 1012.4
20260902174805 78 187 14.0 23.0 0.00 0.00 0.00 32 1012.4
20260902173805 79 181 10.0 21.0 0.00 0.00 0.00 35 1012.4
20260902173305 78 184 12.0 20.0 0.00 0.00 0.00 34 1012.4
20260902172805 77 178 12.0 20.0 0.00 0.00 0.00 34 1012.4
20260902172308 77 168 14.0 22.0 0.00 0.00 0.00 34 1012.4
20260902171804 77 169 10.0 17.0 0.00 0.00 0.00 39 1012.6
20260902171305 77 176 12.0 20.0 0.00 0.00 0.00 38 1012.6
20260902170806 76 201 15.0 24.0 0.00 0.00 0.00 34 1012.6
20260902170304 76 204 13.0 24.0 0.00 0.00 0.00 35 1012.5
20260902165805 76 195 12.0 24.0 0.00 0.00 0.00 36 1012.5
20260902164805 75 229 6.0 12.0 0.00 0.00 0.00 40 1012.5
20260902164305 75 182 7.0 12.0 0.00 0.00 0.00 42 1012.5
20260902163805 75 149 6.0 10.0 0.00 0.00 0.00 44 1012.5
20260902163305 75 136 5.0 9.0 0.00 0.00 0.00 44 1012.6
20260902162805 76 160 10.0 21.0 0.00 0.00 0.00 38 1012.6
20260902162307 76 171 11.0 26.0 0.00 0.00 0.00 38 1012.6
20260902161805 75 174 14.0 24.0 0.00 0.00 0.00 39 1012.6
20260902160805 75 154 7.0 13.0 0.00 0.00 0.00 45 1012.5
20260902160305 75 155 5.0 10.0 0.00 0.00 0.00 44 1012.5
20260902155805 74 136 9.0 13.0 0.00 0.00 0.00 44 1012.4
20260902155307 74 156 6.0 9.0 0.00 0.00 0.00 44 1012.5
20260902154805 74 155 7.0 16.0 0.00 0.00 0.00 43 1012.5
20260902153804 74 170 7.0 13.0 0.00 0.00 0.00 43 1012.5
20260902153305 73 155 10.0 16.0 0.00 0.00 0.00 43 1012.3
20260902152805 73 145 9.0 20.0 0.00 0.00 0.00 43 1012.3
20260902152307 73 143 9.0 15.0 0.00 0.00 0.00 45 1012.5
20260902151805 73 146 10.0 17.0 0.00 0.00 0.00 46 1012.5
20260902150804 73 159 8.0 13.0 0.00 0.00 0.00 45 1012.4
20260902150305 72 146 8.0 15.0 0.00 0.00 0.00 45 1012.4
20260902145805 72 143 7.0 15.0 0.00 0.00 0.00 49 1012.4
20260902145306 71 136 8.0 13.0 0.00 0.00 0.00 49 1012.4
20260902144804 72 131 10.0 15.0 0.00 0.00 0.00 48 1012.5
20260902144305 72 137 10.0 16.0 0.00 0.00 0.00 48 1012.5
20260902143305 71 142 10.0 15.0 0.00 0.00 0.00 49 1012.0
20260902142306 69 117 6.0 15.0 0.00 0.00 0.00 53 1012.0
20260902141805 68 124 9.0 16.0 0.00 0.00 0.00 55 1012.0
20260902141305 67 116 9.0 15.0 0.00 0.00 0.00 58 1012.3
20260902135306 66 118 8.0 14.0 0.00 0.00 0.00 61 1012.1
20260902134805 66 124 7.0 13.0 0.00 0.00 0.00 61 1012.1
20260902134304 66 128 8.0 14.0 0.00 0.00 0.00 62 1012.1
20260902133804 66 134 8.0 14.0 0.00 0.00 0.00 62 1012.1
20260902133304 66 118 10.0 18.0 0.00 0.00 0.00 61 1012.1
20260902132805 67 118 8.0 14.0 0.00 0.00 0.00 60 1011.8
20260902132306 68 114 9.0 13.0 0.00 0.00 0.00 58 1011.8
20260902131805 68 113 10.0 14.0 0.00 0.00 0.00 57 1011.7
20260902131304 68 116 12.0 16.0 0.00 0.00 0.00 57 1011.5
20260902125804 69 118 14.0 20.0 0.00 0.00 0.00 53 1011.4
20260902125306 68 117 12.0 21.0 0.00 0.00 0.00 55 1011.4
20260902124805 67 106 9.0 17.0 0.00 0.00 0.00 59 1011.6
20260902124305 67 131 8.0 12.0 0.00 0.00 0.00 60 1011.6
20260902123804 67 134 7.0 14.0 0.00 0.00 0.00 61 1011.6